Amarillo, TX

11:22 PM CDT on August 23, 2017 (GMT -0500)
Amarillo International

Weather History for KAMA - January, 2012

Change the Weather History Date:

Monday, January 30, 2012

  Actual Average Record
Temperature  
Mean Temperature 51 °F 38 °F  
Max Temperature 72 °F 52 °F 79 °F (2016)
Min Temperature 30 °F 24 °F -4 °F (1895)
Degree Days  
Heating Degree Days 14 27  
Month to date heating degree days 686 841  
Since 1 July heating degree days 2352 2558  
Cooling Degree Days 0 0  
Month to date cooling degree days 0 0  
Year to date cooling degree days 0 0  
Growing Degree Days 1 (Base 50)    
Moisture  
Dew Point 13 °F    
Average Humidity 33    
Maximum Humidity 58    
Minimum Humidity 8    
Precipitation  
Precipitation 0.00 in 0.03 in 0.94 in (2002)
Month to date precipitation 0.05 0.69  
Year to date precipitation 0.05 0.69  
Snow  
Snow 0.00 in 0.20 in 4.30 in (1999)
Month to date snowfall 0.0 4.5  
Since 1 July snowfall 9.7 10.9  
Snow Depth 0.00 in    
Sea Level Pressure  
Sea Level Pressure 29.93 in    
Wind  
Wind Speed 16 mph (SW)    
Max Wind Speed 30 mph    
Max Gust Speed 39 mph    
Visibility 10 miles    
Events      
T = Trace of Precipitation, MM = Missing Value Source: NWS Daily Summary

Daily Weather History Graph

Daily Weather History Graph

Search for Another Location

Airport or City:

Trip Planner

Search our weather history database for the weather conditions in past years. The results will help you decide how hot, cold, wet, or windy it might be!

Date:

Astronomy

Jan. 30, 2012 Rise Set
Actual Time 7:47 AM CST 6:12 PM CST
Civil Twilight 7:21 AM CST 6:39 PM CST
Nautical Twilight 6:50 AM CST 7:10 PM CST
Astronomical Twilight 6:20 AM CST 7:40 PM CST
Moon 11:30 AM CST (1/30) 12:40 AM CST (1/30)
Length of Visible Light 11h 18m
Length of Day
10h 24m
Waxing Crescent, 46% of the Moon is Illuminated
Jan 30
Waxing Crescent
Jan 30
First Quarter
Feb 7
Full
Feb 14
Last Quarter
Feb 21
New

Hourly Weather History & Observations

Time (CST) Temp. Windchill Dew Point Humidity Pressure Visibility Wind Dir Wind Speed Gust Speed Precip Events Conditions
12:53 AM 33.1 °F 25.5 °F 12.9 °F 43% 30.11 in 10.0 mi WSW 9.2 mph - N/A   Clear
1:53 AM 34.0 °F 26.6 °F 14.0 °F 44% 30.08 in 10.0 mi SW 9.2 mph - N/A   Clear
2:53 AM 30.9 °F 20.7 °F 12.9 °F 47% 30.06 in 10.0 mi SW 13.8 mph - N/A   Clear
3:53 AM 32.0 °F 23.0 °F 14.0 °F 48% 30.03 in 10.0 mi SW 11.5 mph - N/A   Clear
4:53 AM 35.1 °F 25.5 °F 17.1 °F 48% 30.01 in 10.0 mi SW 15.0 mph - N/A   Clear
5:53 AM 30.9 °F 22.2 °F 18.0 °F 59% 30.01 in 10.0 mi SSW 10.4 mph - N/A   Clear
6:53 AM 33.1 °F 24.4 °F 19.0 °F 56% 30.01 in 10.0 mi SW 11.5 mph - N/A   Clear
7:53 AM 36.0 °F 26.3 °F 16.0 °F 44% 30.01 in 10.0 mi SW 16.1 mph - N/A   Clear
8:53 AM 41.0 °F 32.8 °F 15.1 °F 35% 30.01 in 10.0 mi WSW 16.1 mph - N/A   Clear
9:53 AM 48.0 °F - 14.0 °F 26% 29.98 in 10.0 mi WSW 21.9 mph 28.8 mph N/A   Clear
10:53 AM 53.6 °F - 15.8 °F 22% 30.01 in 10.0 mi WSW 11.5 mph - N/A   Clear
11:53 AM 57.9 °F - 15.1 °F 19% 29.94 in 10.0 mi WSW 18.4 mph - N/A   Clear
12:53 PM 66.2 °F - 15.8 °F 14% 29.95 in 10.0 mi WSW 18.4 mph 24.2 mph N/A   Clear
1:53 PM 69.8 °F - 10.4 °F 10% 29.90 in 10.0 mi SW 27.6 mph 33.4 mph N/A   Clear
2:53 PM 72.0 °F - 9.0 °F 9% 29.81 in 10.0 mi SW 28.8 mph 35.7 mph N/A   Clear
3:53 PM 72.0 °F - 6.1 °F 8% 29.80 in 10.0 mi SW 24.2 mph 36.8 mph N/A   Clear
4:53 PM 70.0 °F - 7.0 °F 9% 29.79 in 10.0 mi SW 20.7 mph 29.9 mph N/A   Clear
5:53 PM 64.0 °F - 8.1 °F 11% 29.81 in 10.0 mi SSW 17.3 mph - N/A   Clear
6:53 PM 55.9 °F - 10.0 °F 16% 29.83 in 10.0 mi South 15.0 mph - N/A   Clear
7:53 PM 48.0 °F - 10.0 °F 22% 29.86 in 10.0 mi SSW 13.8 mph - N/A   Clear
8:53 PM 46.9 °F - 10.0 °F 22% 29.86 in 10.0 mi SSW 16.1 mph - N/A   Clear
9:53 PM 45.0 °F 38.2 °F 10.9 °F 25% 29.85 in 10.0 mi SSW 15.0 mph - N/A   Clear
10:53 PM 43.0 °F 36.4 °F 15.1 °F 32% 29.85 in 10.0 mi SW 12.7 mph - N/A   Clear
11:53 PM 42.1 °F 34.9 °F 17.1 °F 37% 29.85 in 10.0 mi SW 13.8 mph - N/A   Clear